LEMD Weather Reports


Display with metric or nautical units.
time (UTC)temp
F
wind
direction
speed
MPH
gust
MPH
rain 1hr
in
rain 24hr
in
rain mn
in
humidity
%
barometer
mb
20260510133004 55 200 13.0 0.0 0.00 0.00 0.00 76 1013.0
20260510130004 54 240 16.0 0.0 0.00 0.00 0.00 76 1013.0
20260510123004 54 240 13.0 0.0 0.00 0.00 0.00 87 1013.0
20260510121504 54 240 13.0 0.0 0.00 0.00 0.00 87 1013.0
20260510114504 54 230 16.0 0.0 0.00 0.00 0.00 81 1013.0
20260510113004 54 250 16.0 0.0 0.00 0.00 0.00 87 1012.0
20260510110004 59 170 14.0 0.0 0.00 0.00 0.00 72 1012.0
20260510103004 55 170 13.0 0.0 0.00 0.00 0.00 87 1012.0
20260510100005 55 160 9.0 0.0 0.00 0.00 0.00 93 1013.0
20260510093005 54 160 1.0 0.0 0.00 0.00 0.00 100 1013.0
20260510091504 54 160 1.0 0.0 0.00 0.00 0.00 100 1013.0
20260510090004 54 170 12.0 0.0 0.00 0.00 0.00 93 1013.0
20260510084503 54 170 12.0 0.0 0.00 0.00 0.00 93 1013.0
20260510083005 54 170 8.0 0.0 0.00 0.00 0.00 87 1013.0
20260510081503 54 170 8.0 0.0 0.00 0.00 0.00 87 1013.0
20260510074504 52 0 2.0 0.0 0.00 0.00 0.00 100 1013.0
20260510073004 50 0 1.0 0.0 0.00 0.00 0.00 100 1013.0
20260510060004 48 150 1.0 0.0 0.00 0.00 0.00 100 1012.0
20260510053004 48 0 2.0 0.0 0.00 0.00 0.00 100 1012.0
20260510050005 48 130 5.0 0.0 0.00 0.00 0.00 100 1012.0
20260510041504 48 120 5.0 0.0 0.00 0.00 0.00 100 1013.0
20260510040005 48 130 3.0 0.0 0.00 0.00 0.00 100 1013.0
20260510034504 48 130 3.0 0.0 0.00 0.00 0.00 100 1013.0
20260510031504 50 140 5.0 0.0 0.00 0.00 0.00 100 1013.0
20260510023004 50 140 5.0 0.0 0.00 0.00 0.00 100 1013.0
20260510020005 52 150 6.0 0.0 0.00 0.00 0.00 100 1013.0
20260510013004 52 180 6.0 0.0 0.00 0.00 0.00 93 1013.0
20260510004504 52 160 3.0 0.0 0.00 0.00 0.00 100 1013.0
20260510001504 52 180 5.0 0.0 0.00 0.00 0.00 100 1013.0
20260510000004 52 190 8.0 0.0 0.00 0.00 0.00 100 1014.0
20260509234503 52 190 8.0 0.0 0.00 0.00 0.00 100 1014.0
20260509233004 52 170 6.0 0.0 0.00 0.00 0.00 100 1014.0
20260509231504 52 170 6.0 0.0 0.00 0.00 0.00 100 1014.0
20260509223005 52 250 8.0 0.0 0.00 0.00 0.00 93 1012.0
20260509221504 52 250 8.0 0.0 0.00 0.00 0.00 93 1012.0
20260509220007 52 250 12.0 0.0 0.00 0.00 0.00 100 1012.0
20260509213004 52 250 13.0 0.0 0.00 0.00 0.00 100 1012.0
20260509210004 57 170 12.0 0.0 0.00 0.00 0.00 71 1011.0
20260509203004 57 160 12.0 0.0 0.00 0.00 0.00 76 1010.0
20260509190004 59 140 8.0 0.0 0.00 0.00 0.00 82 1010.0
20260509183004 57 120 5.0 0.0 0.00 0.00 0.00 87 1010.0
20260509181504 57 120 5.0 0.0 0.00 0.00 0.00 87 1010.0
20260509180005 57 170 7.0 0.0 0.00 0.00 0.00 87 1010.0
20260509173004 59 160 8.0 0.0 0.00 0.00 0.00 82 1009.0
20260509171504 59 160 8.0 0.0 0.00 0.00 0.00 82 1009.0
20260509170004 61 0 2.0 0.0 0.00 0.00 0.00 77 1009.0
20260509163003 61 0 2.0 0.0 0.00 0.00 0.00 82 1009.0
20260509153004 61 110 5.0 0.0 0.00 0.00 0.00 72 1010.0
20260509150004 59 70 3.0 0.0 0.00 0.00 0.00 76 1010.0
20260509144504 59 70 3.0 0.0 0.00 0.00 0.00 76 1010.0
20260509143005 57 130 2.0 0.0 0.00 0.00 0.00 87 1010.0
20260509141504 57 130 2.0 0.0 0.00 0.00 0.00 87 1010.0
20260509134504 55 180 6.0 0.0 0.00 0.00 0.00 100 1011.0